TAM2455 SBGO-SBSP

Flight info

Callsign TAM2455
Flight time 1h 15m
Altitude 36000
Route ESBOD DCT ISISA/N0463F370 DCT UTLOT
Aircraft A20N/M-SDE2E3FGHIRWXY/LB1

Departure

Time 2026-05-09 01:24
Airport Santa Genoveva International Airport (SBGO)

Arrival

Time 2026-05-09 02:39
Airport Congonhas–Deputado Freitas Nobre Airport (SBSP)
Time Latitude Longitude Altitude Speed Heading
2026-05-09 01:03 -16.63005 -49.21509 2462 ft 0 kts 57°
2026-05-09 01:15 -16.63006 -49.21512 2462 ft 2 kts 57°
2026-05-09 01:15 -16.63016 -49.21526 2463 ft 2 kts 56°
2026-05-09 01:16 -16.63025 -49.21540 2464 ft 2 kts 55°
2026-05-09 01:16 -16.63035 -49.21554 2462 ft 2 kts 49°
2026-05-09 01:16 -16.63047 -49.21566 2465 ft 2 kts 347°
2026-05-09 01:17 -16.63056 -49.21562 2463 ft 0 kts 322°
2026-05-09 01:19 -16.63042 -49.21572 2462 ft 6 kts 326°
2026-05-09 01:19 -16.62983 -49.21605 2462 ft 10 kts 335°
2026-05-09 01:19 -16.62917 -49.21658 2462 ft 15 kts 281°
2026-05-09 01:20 -16.62944 -49.21797 2454 ft 25 kts 256°
2026-05-09 01:20 -16.62984 -49.21984 2443 ft 26 kts 258°
2026-05-09 01:20 -16.62978 -49.22149 2446 ft 16 kts 288°
2026-05-09 01:20 -16.62918 -49.22262 2450 ft 20 kts 301°
2026-05-09 01:21 -16.62848 -49.22386 2458 ft 17 kts 301°
2026-05-09 01:21 -16.62780 -49.22509 2464 ft 22 kts 302°
2026-05-09 01:21 -16.62694 -49.22664 2460 ft 27 kts 300°
2026-05-09 01:21 -16.62591 -49.22846 2458 ft 22 kts 301°
2026-05-09 01:22 -16.62590 -49.22925 2459 ft 14 kts 217°
2026-05-09 01:22 -16.62608 -49.22937 2457 ft 0 kts 211°
2026-05-09 01:22 -16.62616 -49.22941 2461 ft 4 kts 211°
2026-05-09 01:23 -16.62670 -49.22973 2459 ft 14 kts 202°
2026-05-09 01:23 -16.62746 -49.22912 2461 ft 17 kts 115°
2026-05-09 01:23 -16.62881 -49.22665 2463 ft 74 kts 120°
2026-05-09 01:23 -16.63258 -49.22001 2452 ft 136 kts 119°
2026-05-09 01:24 -16.63813 -49.21012 2572 ft 172 kts 120°
2026-05-09 01:24 -16.64451 -49.19904 3059 ft 184 kts 121°
2026-05-09 01:24 -16.65154 -49.18736 3595 ft 195 kts 121°
2026-05-09 01:24 -16.65896 -49.17535 4220 ft 200 kts 120°
2026-05-09 01:25 -16.66624 -49.16222 4564 ft 219 kts 119°
2026-05-09 01:25 -16.67761 -49.15045 4831 ft 248 kts 150°
2026-05-09 01:25 -16.69497 -49.14573 5247 ft 272 kts 180°
2026-05-09 01:25 -16.71373 -49.15042 5868 ft 285 kts 208°
2026-05-09 01:26 -16.72879 -49.16372 6718 ft 287 kts 232°
2026-05-09 01:26 -16.74121 -49.18015 7587 ft 289 kts 230°
2026-05-09 01:26 -16.75563 -49.19453 8468 ft 291 kts 218°
2026-05-09 01:26 -16.77270 -49.20605 9346 ft 294 kts 208°
2026-05-09 01:27 -16.79131 -49.21524 10209 ft 297 kts 203°
2026-05-09 01:27 -16.81070 -49.22321 10959 ft 302 kts 201°
2026-05-09 01:27 -16.83064 -49.23078 11709 ft 307 kts 200°
2026-05-09 01:27 -16.85088 -49.23826 12451 ft 312 kts 197°
2026-05-09 01:28 -16.87244 -49.24143 13179 ft 316 kts 177°
2026-05-09 01:28 -16.89407 -49.23681 13899 ft 320 kts 160°
2026-05-09 01:28 -16.91527 -49.22869 14212 ft 339 kts 159°
2026-05-09 01:28 -16.93814 -49.21993 14383 ft 359 kts 159°
2026-05-09 01:29 -16.96216 -49.21079 14674 ft 374 kts 160°
2026-05-09 01:29 -16.98674 -49.20151 15275 ft 377 kts 160°
2026-05-09 01:29 -17.01161 -49.19227 15909 ft 380 kts 161°
2026-05-09 01:29 -17.03669 -49.18299 16513 ft 384 kts 160°
2026-05-09 01:30 -17.06201 -49.17355 17104 ft 387 kts 160°
2026-05-09 01:30 -17.08750 -49.16398 17677 ft 390 kts 160°
2026-05-09 01:30 -17.11316 -49.15431 18247 ft 394 kts 160°
2026-05-09 01:30 -17.13874 -49.14465 18721 ft 397 kts 160°
2026-05-09 01:31 -17.16495 -49.13474 19213 ft 400 kts 160°
2026-05-09 01:31 -17.19122 -49.12481 19684 ft 404 kts 160°
2026-05-09 01:31 -17.21777 -49.11477 20164 ft 407 kts 160°
2026-05-09 01:31 -17.24457 -49.10464 20634 ft 410 kts 160°
2026-05-09 01:32 -17.27154 -49.09458 21101 ft 414 kts 163°
2026-05-09 01:32 -17.29930 -49.08721 21556 ft 417 kts 171°
2026-05-09 01:32 -17.32826 -49.08361 22008 ft 419 kts 178°
2026-05-09 01:32 -17.35745 -49.08293 22486 ft 422 kts 180°
2026-05-09 01:33 -17.38695 -49.08229 22960 ft 426 kts 180°
2026-05-09 01:33 -17.41678 -49.08157 23418 ft 429 kts 180°
2026-05-09 01:33 -17.44678 -49.08082 23832 ft 432 kts 180°
2026-05-09 01:33 -17.47701 -49.08008 24240 ft 434 kts 180°
2026-05-09 01:34 -17.50699 -49.07935 24637 ft 437 kts 180°
2026-05-09 01:34 -17.53752 -49.07861 25036 ft 439 kts 180°
2026-05-09 01:34 -17.56823 -49.07787 25430 ft 442 kts 180°
2026-05-09 01:34 -17.59904 -49.07714 25811 ft 444 kts 180°
2026-05-09 01:35 -17.63009 -49.07640 26188 ft 447 kts 181°
2026-05-09 01:35 -17.66125 -49.07565 26557 ft 449 kts 181°
2026-05-09 01:35 -17.69220 -49.07492 26911 ft 452 kts 181°
2026-05-09 01:35 -17.72382 -49.07416 27275 ft 454 kts 181°
2026-05-09 01:36 -17.75551 -49.07341 27627 ft 456 kts 181°
2026-05-09 01:36 -17.78736 -49.07265 27983 ft 459 kts 181°
2026-05-09 01:36 -17.81946 -49.07189 28333 ft 461 kts 181°
2026-05-09 01:36 -17.85162 -49.07112 28664 ft 464 kts 181°
2026-05-09 01:37 -17.88407 -49.07035 29003 ft 466 kts 181°
2026-05-09 01:37 -17.91659 -49.06958 29330 ft 468 kts 181°
2026-05-09 01:37 -17.94924 -49.06881 29635 ft 471 kts 181°
2026-05-09 01:37 -17.98172 -49.06804 29956 ft 474 kts 181°
2026-05-09 01:38 -18.01478 -49.06725 30251 ft 476 kts 182°
2026-05-09 01:38 -18.04795 -49.06646 30603 ft 476 kts 182°
2026-05-09 01:38 -18.08109 -49.06567 30951 ft 477 kts 182°
2026-05-09 01:38 -18.11439 -49.06487 31331 ft 477 kts 182°
2026-05-09 01:39 -18.14747 -49.06408 31782 ft 475 kts 182°
2026-05-09 01:39 -18.18048 -49.06329 32232 ft 472 kts 182°
2026-05-09 01:39 -18.21322 -49.06250 32701 ft 469 kts 182°
2026-05-09 01:39 -18.24395 -49.06177 33127 ft 467 kts 182°
2026-05-09 01:40 -18.27722 -49.06097 33591 ft 464 kts 182°
2026-05-09 01:40 -18.30936 -49.06021 34019 ft 462 kts 183°
2026-05-09 01:40 -18.34140 -49.05945 34348 ft 460 kts 183°
2026-05-09 01:40 -18.37341 -49.05869 34633 ft 459 kts 183°
2026-05-09 01:41 -18.40541 -49.05794 34930 ft 458 kts 183°
2026-05-09 01:41 -18.43723 -49.05718 35209 ft 458 kts 183°
2026-05-09 01:41 -18.46914 -49.05642 35483 ft 457 kts 183°
2026-05-09 01:41 -18.50088 -49.05567 35765 ft 456 kts 183°
2026-05-09 01:42 -18.53263 -49.05491 35973 ft 456 kts 183°
2026-05-09 01:42 -18.56414 -49.05417 36002 ft 461 kts 184°
2026-05-09 01:42 -18.62892 -49.05265 36002 ft 466 kts 183°
2026-05-09 01:43 -18.69358 -49.05108 36007 ft 465 kts 183°
2026-05-09 01:43 -18.75835 -49.04953 36005 ft 465 kts 184°
2026-05-09 01:44 -18.82307 -49.04799 36008 ft 465 kts 184°
2026-05-09 01:44 -18.88801 -49.04644 36006 ft 465 kts 184°
2026-05-09 01:45 -18.95225 -49.04490 36006 ft 465 kts 184°
2026-05-09 01:45 -19.01702 -49.04335 36004 ft 465 kts 184°
2026-05-09 01:46 -19.08177 -49.04180 36006 ft 465 kts 184°
2026-05-09 01:46 -19.13561 -49.04051 36006 ft 465 kts 184°
2026-05-09 01:47 -19.21098 -49.03870 36006 ft 465 kts 184°
2026-05-09 01:47 -19.26521 -49.03741 35999 ft 465 kts 184°
2026-05-09 01:48 -19.33001 -49.03586 36004 ft 465 kts 184°
2026-05-09 01:48 -19.39480 -49.03431 36003 ft 466 kts 184°
2026-05-09 01:49 -19.45953 -49.03275 36002 ft 466 kts 184°
2026-05-09 01:49 -19.52407 -49.03120 35999 ft 466 kts 184°
2026-05-09 01:50 -19.58901 -49.02964 35998 ft 466 kts 184°
2026-05-09 01:50 -19.65401 -49.02808 35999 ft 467 kts 184°
2026-05-09 01:51 -19.71891 -49.02652 35991 ft 467 kts 184°
2026-05-09 01:51 -19.78382 -49.02495 35996 ft 468 kts 184°
2026-05-09 01:52 -19.84900 -49.02337 35993 ft 468 kts 184°
2026-05-09 01:52 -19.91390 -49.02181 35990 ft 469 kts 184°
2026-05-09 01:53 -19.97933 -49.02022 35990 ft 469 kts 184°
2026-05-09 01:53 -20.04457 -49.01864 35988 ft 469 kts 184°
2026-05-09 01:54 -20.10997 -49.01706 35987 ft 470 kts 184°
2026-05-09 01:54 -20.17498 -49.01548 35986 ft 470 kts 184°
2026-05-09 01:55 -20.24055 -49.01388 35983 ft 470 kts 184°
2026-05-09 01:55 -20.30595 -49.01229 35977 ft 470 kts 184°
2026-05-09 01:56 -20.37154 -49.01070 35980 ft 471 kts 184°
2026-05-09 01:56 -20.43668 -49.00911 35979 ft 472 kts 184°
2026-05-09 01:57 -20.50238 -49.00751 35975 ft 472 kts 184°
2026-05-09 01:57 -20.56814 -49.00591 35979 ft 473 kts 185°
2026-05-09 01:58 -20.63405 -49.00430 35978 ft 473 kts 185°
2026-05-09 01:58 -20.70001 -49.00268 35976 ft 474 kts 185°
2026-05-09 01:59 -20.76563 -49.00108 35976 ft 475 kts 185°
2026-05-09 01:59 -20.83219 -48.99945 35973 ft 476 kts 185°
2026-05-09 02:00 -20.89809 -48.99783 35980 ft 476 kts 185°
2026-05-09 02:00 -20.96431 -48.99621 35979 ft 476 kts 185°
2026-05-09 02:01 -21.03073 -48.99457 35978 ft 476 kts 185°
2026-05-09 02:01 -21.09667 -48.99295 35975 ft 476 kts 185°
2026-05-09 02:02 -21.16290 -48.99132 35977 ft 476 kts 185°
2026-05-09 02:02 -21.22917 -48.98969 35975 ft 476 kts 185°
2026-05-09 02:03 -21.29538 -48.98806 35962 ft 475 kts 185°
2026-05-09 02:03 -21.36170 -48.98643 35964 ft 475 kts 185°
2026-05-09 02:04 -21.42743 -48.98480 35958 ft 475 kts 185°
2026-05-09 02:04 -21.49369 -48.98316 35955 ft 475 kts 185°
2026-05-09 02:05 -21.55988 -48.98153 35955 ft 475 kts 185°
2026-05-09 02:05 -21.62589 -48.97163 35949 ft 490 kts 166°
2026-05-09 02:06 -21.65693 -48.95690 35937 ft 498 kts 154°
2026-05-09 02:06 -21.68557 -48.93544 35940 ft 505 kts 142°
2026-05-09 02:07 -21.75506 -48.84878 35943 ft 512 kts 131°
2026-05-09 02:07 -21.79999 -48.78923 35952 ft 513 kts 132°
2026-05-09 02:08 -21.84491 -48.72988 35957 ft 513 kts 132°
2026-05-09 02:08 -21.89016 -48.67008 35962 ft 514 kts 132°
2026-05-09 02:09 -21.93507 -48.61066 35966 ft 514 kts 132°
2026-05-09 02:09 -21.98024 -48.55084 35967 ft 515 kts 132°
2026-05-09 02:10 -22.02554 -48.49077 35971 ft 515 kts 132°
2026-05-09 02:10 -22.07075 -48.43076 35969 ft 515 kts 132°
2026-05-09 02:11 -22.11597 -48.37065 35971 ft 516 kts 131°
2026-05-09 02:11 -22.16101 -48.31074 35969 ft 516 kts 131°
2026-05-09 02:12 -22.20619 -48.25055 35973 ft 516 kts 131°
2026-05-09 02:12 -22.25143 -48.19023 35969 ft 517 kts 131°
2026-05-09 02:13 -22.29672 -48.12977 36011 ft 516 kts 131°
2026-05-09 02:13 -22.34090 -48.07068 35970 ft 503 kts 132°
2026-05-09 02:14 -22.38519 -48.01145 35963 ft 507 kts 132°
2026-05-09 02:14 -22.40733 -47.98182 35708 ft 508 kts 131°
2026-05-09 02:14 -22.42959 -47.95200 35156 ft 510 kts 131°
2026-05-09 02:14 -22.45195 -47.92205 34361 ft 514 kts 131°
2026-05-09 02:15 -22.47432 -47.89209 33358 ft 520 kts 130°
2026-05-09 02:15 -22.49718 -47.86157 32335 ft 522 kts 131°
2026-05-09 02:15 -22.52014 -47.83105 31132 ft 523 kts 130°
2026-05-09 02:15 -22.54309 -47.80060 30342 ft 521 kts 130°
2026-05-09 02:16 -22.56593 -47.77025 29824 ft 515 kts 130°
2026-05-09 02:16 -22.58836 -47.74038 29276 ft 507 kts 130°
2026-05-09 02:16 -22.61048 -47.71091 28651 ft 502 kts 130°
2026-05-09 02:16 -22.63235 -47.68175 28014 ft 497 kts 130°
2026-05-09 02:17 -22.65402 -47.65284 27385 ft 493 kts 130°
2026-05-09 02:17 -22.67535 -47.62437 26761 ft 489 kts 129°
2026-05-09 02:17 -22.69671 -47.59584 26118 ft 486 kts 129°
2026-05-09 02:17 -22.71805 -47.56732 25430 ft 485 kts 129°
2026-05-09 02:18 -22.73829 -47.54026 24838 ft 482 kts 129°
2026-05-09 02:18 -22.75932 -47.51213 24215 ft 479 kts 129°
2026-05-09 02:18 -22.78000 -47.48446 23650 ft 475 kts 129°
2026-05-09 02:18 -22.80076 -47.45665 23043 ft 470 kts 129°
2026-05-09 02:19 -22.82122 -47.42922 22500 ft 464 kts 129°
2026-05-09 02:19 -22.84139 -47.40217 21951 ft 458 kts 129°
2026-05-09 02:19 -22.86129 -47.37546 21412 ft 452 kts 129°
2026-05-09 02:19 -22.88100 -47.34900 20895 ft 447 kts 129°
2026-05-09 02:20 -22.90020 -47.32322 20378 ft 442 kts 129°
2026-05-09 02:20 -22.91947 -47.29732 19816 ft 439 kts 129°
2026-05-09 02:20 -22.93845 -47.27180 19321 ft 434 kts 129°
2026-05-09 02:20 -22.95733 -47.24640 18826 ft 429 kts 128°
2026-05-09 02:21 -22.97607 -47.22118 18324 ft 425 kts 128°
2026-05-09 02:21 -22.99459 -47.19624 17774 ft 421 kts 128°
2026-05-09 02:21 -23.01395 -47.17266 17290 ft 415 kts 139°
2026-05-09 02:21 -23.03784 -47.15560 16843 ft 406 kts 158°
2026-05-09 02:22 -23.06439 -47.14690 16537 ft 399 kts 171°
2026-05-09 02:22 -23.09185 -47.14094 16209 ft 401 kts 171°
2026-05-09 02:22 -23.11914 -47.13503 15872 ft 399 kts 171°
2026-05-09 02:22 -23.14587 -47.12920 15539 ft 394 kts 171°
2026-05-09 02:23 -23.17272 -47.12331 15206 ft 392 kts 171°
2026-05-09 02:23 -23.19953 -47.11741 14880 ft 390 kts 171°
2026-05-09 02:23 -23.22609 -47.11156 14542 ft 389 kts 171°
2026-05-09 02:23 -23.25258 -47.10571 14221 ft 386 kts 171°
2026-05-09 02:24 -23.27888 -47.09993 13895 ft 384 kts 171°
2026-05-09 02:24 -23.30506 -47.09419 13542 ft 381 kts 171°
2026-05-09 02:24 -23.33099 -47.08852 13222 ft 381 kts 171°
2026-05-09 02:24 -23.35668 -47.08290 12898 ft 381 kts 171°
2026-05-09 02:25 -23.38257 -47.07723 12586 ft 379 kts 171°
2026-05-09 02:25 -23.40813 -47.07021 12273 ft 379 kts 159°
2026-05-09 02:25 -23.43059 -47.05538 11957 ft 380 kts 138°
2026-05-09 02:25 -23.44755 -47.03343 11645 ft 378 kts 122°
2026-05-09 02:26 -23.46147 -47.00945 11400 ft 372 kts 119°
2026-05-09 02:26 -23.47457 -46.98568 11273 ft 359 kts 119°
2026-05-09 02:26 -23.48722 -46.96295 11117 ft 342 kts 119°
2026-05-09 02:26 -23.49950 -46.94130 10774 ft 330 kts 120°
2026-05-09 02:27 -23.51157 -46.92031 10283 ft 324 kts 120°
2026-05-09 02:27 -23.52355 -46.89964 9917 ft 323 kts 119°
2026-05-09 02:27 -23.53537 -46.87937 9672 ft 320 kts 119°
2026-05-09 02:27 -23.54731 -46.85887 9411 ft 321 kts 119°
2026-05-09 02:28 -23.55960 -46.83858 9160 ft 318 kts 126°
2026-05-09 02:28 -23.57513 -46.82163 9036 ft 318 kts 141°
2026-05-09 02:28 -23.59384 -46.80824 9037 ft 322 kts 147°
2026-05-09 02:28 -23.61262 -46.79536 9033 ft 321 kts 147°
2026-05-09 02:29 -23.63174 -46.78211 9039 ft 322 kts 147°
2026-05-09 02:29 -23.65039 -46.76917 9033 ft 322 kts 147°
2026-05-09 02:29 -23.66933 -46.75603 8864 ft 323 kts 147°
2026-05-09 02:29 -23.68840 -46.74280 8481 ft 324 kts 147°
2026-05-09 02:30 -23.70723 -46.72973 8109 ft 323 kts 147°
2026-05-09 02:30 -23.72598 -46.71672 7836 ft 317 kts 147°
2026-05-09 02:30 -23.74465 -46.70376 7563 ft 318 kts 147°
2026-05-09 02:30 -23.76343 -46.69071 7208 ft 320 kts 147°
2026-05-09 02:31 -23.78215 -46.67770 6919 ft 316 kts 147°
2026-05-09 02:31 -23.80029 -46.66510 6789 ft 302 kts 147°
2026-05-09 02:31 -23.81739 -46.65322 6621 ft 286 kts 147°
2026-05-09 02:31 -23.82829 -46.64522 6511 ft 274 kts 137°
2026-05-09 02:32 -23.84104 -46.62385 6275 ft 240 kts 95°
2026-05-09 02:32 -23.84062 -46.60667 5925 ft 220 kts 62°
2026-05-09 02:32 -23.83298 -46.59310 5541 ft 205 kts 40°
2026-05-09 02:32 -23.82695 -46.58530 5394 ft 200 kts 41°
2026-05-09 02:33 -23.81593 -46.57033 5230 ft 182 kts 43°
2026-05-09 02:33 -23.80851 -46.55995 5223 ft 164 kts 42°
2026-05-09 02:33 -23.80184 -46.55064 5228 ft 149 kts 39°
2026-05-09 02:33 -23.79645 -46.54617 5257 ft 141 kts 13°
2026-05-09 02:34 -23.78732 -46.54563 5194 ft 131 kts 340°
2026-05-09 02:34 -23.77943 -46.55059 4986 ft 131 kts 327°
2026-05-09 02:34 -23.77185 -46.55613 4822 ft 130 kts 328°
2026-05-09 02:34 -23.76429 -46.56143 4676 ft 132 kts 328°
2026-05-09 02:35 -23.75660 -46.56676 4519 ft 131 kts 329°
2026-05-09 02:35 -23.74882 -46.57213 4364 ft 136 kts 329°
2026-05-09 02:35 -23.74087 -46.57759 4248 ft 132 kts 329°
2026-05-09 02:35 -23.73297 -46.58301 4245 ft 135 kts 329°
2026-05-09 02:36 -23.72502 -46.58848 4261 ft 135 kts 329°
2026-05-09 02:36 -23.71708 -46.59396 4259 ft 135 kts 329°
2026-05-09 02:36 -23.70938 -46.59929 4252 ft 127 kts 329°
2026-05-09 02:36 -23.70192 -46.60445 4261 ft 128 kts 329°
2026-05-09 02:37 -23.69443 -46.60961 4192 ft 128 kts 329°
2026-05-09 02:37 -23.68691 -46.61480 3967 ft 127 kts 329°
2026-05-09 02:37 -23.67943 -46.61999 3654 ft 129 kts 330°
2026-05-09 02:37 -23.67186 -46.62524 3483 ft 132 kts 331°
2026-05-09 02:38 -23.66421 -46.63047 3375 ft 130 kts 329°
2026-05-09 02:38 -23.65619 -46.63600 3145 ft 140 kts 329°
2026-05-09 02:38 -23.64797 -46.64180 2925 ft 139 kts 329°
2026-05-09 02:38 -23.63991 -46.64738 2739 ft 139 kts 330°
2026-05-09 02:39 -23.63255 -46.65244 2617 ft 139 kts 330°
2026-05-09 02:39 -23.62565 -46.65711 2604 ft 84 kts 329°
2026-05-09 02:39 -23.62265 -46.65925 2599 ft 37 kts 328°
2026-05-09 02:39 -23.62202 -46.65979 2599 ft 5 kts 294°
2026-05-09 02:40 -23.62207 -46.66039 2599 ft 2 kts 223°
2026-05-09 02:40 -23.62221 -46.66043 2599 ft 0 kts 195°
2026-05-09 02:40 -23.62236 -46.66045 2599 ft 5 kts 182°
2026-05-09 02:41 -23.62305 -46.66038 2600 ft 15 kts 170°
2026-05-09 02:41 -23.62413 -46.65979 2600 ft 17 kts 148°
2026-05-09 02:41 -23.62457 -46.65951 2600 ft 3 kts 166°
2026-05-09 02:41 -23.62468 -46.65965 2600 ft 4 kts 250°
2026-05-09 02:42 -23.62479 -46.65984 2600 ft 1 kts 239°
2026-05-09 02:42 -23.62481 -46.65987 2600 ft 0 kts 239°